DateTimeUTC,F1_A11,F1_S11,BsB_S11,BsG_S11,BsR_S11,BbsB_S11,BbsG_S11,BbsR_S11,BaB_A11,BaG_A11,BaR_A11,Tu_S11,T_S11,Uu_S11,U_S11,P_S11,T1_A11
2021-10-02T08:00:00Z,00000200,21000000,,,,,,,-000.13,0000.02,0000.29,16.2,23.5,,00.0,0671.4,30.9
2021-10-02T08:01:00Z,00000200,21000000,,,,,,,0000.16,-000.02,-000.38,16.2,23.5,,00.0,0671.4,30.9
2021-10-02T08:02:00Z,00000200,21000000,,,,,,,0000.20,0000.07,0000.16,16.2,23.5,,00.0,0671.4,30.9
2021-10-02T08:03:00Z,00000200,61000000,,,,,,,0000.20,0000.52,0000.37,16.2,23.5,,00.0,0671.4,30.9
2021-10-02T08:04:00Z,00000200,41000000,0000.57,0000.29,0000.56,-000.23,0000.25,-000.24,0000.37,0000.31,0000.15,16.5,23.3,,00.0,0672.4,30.9
2021-10-02T08:05:00Z,00000200,01000000,0000.93,0000.85,0000.06,0000.56,0000.33,0000.00,0000.25,0000.18,0000.36,16.6,23.3,,00.0,0672.5,30.9
2021-10-02T08:06:00Z,00000200,01000000,0000.82,0000.60,0000.36,-000.41,0000.06,0000.25,0000.32,0000.43,0000.26,16.7,23.3,,00.0,0672.5,30.9
2021-10-02T08:07:00Z,00000200,01000000,0000.84,0000.62,0000.18,-000.09,0000.53,-000.22,0000.05,0000.16,0000.02,16.8,23.3,,00.0,0672.5,30.9
2021-10-02T08:08:00Z,00000200,01000000,0001.32,0001.04,0000.59,-000.21,0000.13,0000.20,0000.18,0000.13,0000.04,16.8,23.3,,00.0,0672.5,30.9
2021-10-02T08:09:00Z,00000200,01000000,0000.65,0000.61,0000.08,0000.32,0000.40,-000.22,0000.25,0000.06,0000.24,16.9,23.4,,00.0,0672.5,30.9
2021-10-02T08:10:00Z,00000200,01000000,0001.36,0000.45,0000.49,-000.09,0000.17,-000.14,0000.46,0000.34,0000.20,16.9,23.4,,00.0,0672.5,30.9
2021-10-02T08:11:00Z,00000200,01000000,0001.02,0000.61,0000.36,-000.30,0000.50,0000.11,-000.07,0000.13,0000.09,16.8,23.3,,00.0,0672.5,30.9
2021-10-02T08:12:00Z,00000200,01000000,0000.99,0000.73,0000.56,0000.59,-000.00,0000.20,0000.41,0000.16,0000.18,16.8,23.3,,00.0,0672.5,30.9
2021-10-02T08:13:00Z,00000200,01000000,0000.94,0000.68,0000.65,0000.15,0000.38,-000.01,0000.22,0000.22,0000.32,16.7,23.3,,00.0,0672.5,30.9
2021-10-02T08:14:00Z,00000200,01000000,0000.54,0000.51,0000.30,-000.09,0000.12,0000.06,0000.35,0000.02,0000.07,16.6,23.2,,00.0,0672.5,30.9
2021-10-02T08:15:00Z,00000200,01000000,0001.61,0000.54,0000.30,0000.27,0000.07,0000.20,0000.19,0000.31,0000.22,16.6,23.2,,00.0,0672.5,30.9
2021-10-02T08:16:00Z,00000200,01000000,0000.96,0000.42,0000.21,-000.08,0000.02,-000.11,0000.23,0000.47,0000.19,16.6,23.2,,00.0,0672.5,30.9
2021-10-02T08:17:00Z,00000200,01000000,0001.94,0000.39,0000.38,0000.42,0000.32,-000.06,0000.69,0000.33,0000.35,16.6,23.2,,00.0,0672.5,30.9
2021-10-02T08:18:00Z,00000200,01000000,0001.60,0000.37,0000.66,0000.69,0000.64,-000.07,0000.10,0000.17,0000.09,16.6,23.2,,00.0,0672.5,30.9
2021-10-02T08:19:00Z,00000200,01000000,0001.15,0000.38,0000.40,0000.23,0000.14,0000.14,0000.31,0000.26,0000.15,16.7,23.2,,00.0,0672.5,30.9
2021-10-02T08:20:00Z,00000200,01000000,0000.74,0000.76,0000.31,-000.28,0000.21,0000.12,0000.37,0000.61,0000.46,16.7,23.2,,00.0,0672.5,30.9
2021-10-02T08:21:00Z,00000200,01000000,0000.70,0001.00,0000.12,-000.51,0000.46,0000.10,0000.37,0000.33,0000.21,16.8,23.3,,00.0,0672.5,30.9
2021-10-02T08:22:00Z,00000200,01000000,0001.22,0000.80,0000.42,-000.53,0000.03,0000.29,0000.01,0000.48,0000.13,16.9,23.3,,00.0,0672.5,30.9
2021-10-02T08:23:00Z,00000200,01000000,0001.79,0000.44,0000.47,0000.28,0000.08,-000.14,0000.56,-000.02,0000.33,16.9,23.3,,00.0,0672.5,30.9
2021-10-02T08:24:00Z,00000200,01000000,0001.13,0000.47,0000.03,0000.31,0000.06,-000.15,0000.19,-000.03,-000.00,16.9,23.4,,00.0,0672.5,30.9
2021-10-02T08:25:00Z,00000200,01000000,0001.76,0000.42,0000.01,-000.45,0000.16,-000.09,0000.15,0000.44,0000.21,16.9,23.3,,00.0,0672.5,30.9
2021-10-02T08:26:00Z,00000200,01000000,0000.65,0000.75,0000.32,0000.02,0000.14,0000.18,0000.18,-000.05,0000.01,16.8,23.3,,00.0,0672.5,30.9
2021-10-02T08:27:00Z,00000200,01000000,0001.07,0000.80,0000.56,0000.46,0000.38,0000.07,-000.02,0000.41,0000.17,16.8,23.3,,00.0,0672.5,30.9
2021-10-02T08:28:00Z,00000200,01000000,0001.16,0000.52,0000.51,0000.00,0000.30,0000.05,0000.50,0000.18,0000.03,16.7,23.3,,00.0,0672.5,30.9
2021-10-02T08:29:00Z,00000200,01000000,0000.71,0000.53,0000.23,0000.59,0000.32,-000.28,0000.19,0000.24,0000.57,16.7,23.2,,00.0,0672.6,30.9
2021-10-02T08:30:00Z,00000200,01000000,0001.54,0000.42,0000.23,0000.03,0000.40,0000.20,0000.47,-000.05,0000.09,16.6,23.2,,00.0,0672.6,30.9
2021-10-02T08:31:00Z,00000200,01000000,0001.40,0000.43,0000.53,0000.41,0000.33,0000.11,0000.14,0000.58,0000.13,16.6,23.2,,00.0,0672.6,30.9
2021-10-02T08:32:00Z,00000200,01000000,0001.77,0000.58,0000.68,0000.25,0000.31,0000.06,0000.35,0000.04,0000.03,16.6,23.2,,00.0,0672.6,30.9
2021-10-02T08:33:00Z,00000200,01000000,0001.70,0000.87,0000.50,0000.18,0000.29,0000.12,0000.13,0000.25,0000.53,16.6,23.2,,00.0,0672.6,30.9
2021-10-02T08:34:00Z,00000200,01000000,0001.70,0000.55,0000.51,0000.62,0000.20,0000.09,0000.37,0000.39,0000.03,16.7,23.2,,00.0,0672.5,30.9
2021-10-02T08:35:00Z,00000200,01000000,0000.98,0000.79,0000.49,0000.62,-000.10,0000.11,0000.43,0000.37,0000.42,16.8,23.3,,00.0,0672.5,30.9
2021-10-02T08:36:00Z,00000200,01000000,0000.64,0000.73,0000.64,-000.44,0000.45,0000.11,0000.37,0000.54,0000.23,16.8,23.3,,00.0,0672.5,30.9
2021-10-02T08:37:00Z,00000200,01000000,0001.18,0000.48,0000.57,0000.42,0000.49,0000.23,0002.08,0002.15,0001.75,16.9,23.3,,00.0,0672.5,30.9
2021-10-02T08:38:00Z,00000200,01000000,0001.55,0000.59,0000.25,0000.11,0000.08,0000.31,0005.63,0004.84,0003.41,17.0,23.4,,00.0,0672.6,30.9
2021-10-02T08:39:00Z,00000200,01000000,0001.12,0000.53,0000.56,0000.35,0000.03,0000.33,0003.58,0002.98,0002.42,17.0,23.4,,00.0,0672.5,31.0
2021-10-02T08:40:00Z,00000200,01000000,0001.21,0000.71,0000.55,0000.23,0000.34,-000.01,0001.65,0001.63,0001.02,16.9,23.4,,00.0,0672.5,30.9
2021-10-02T08:41:00Z,00000200,01000000,0001.73,0001.14,0000.54,-000.38,0000.23,0000.08,0003.23,0002.58,0001.98,16.9,23.3,,00.0,0672.5,30.9
2021-10-02T08:42:00Z,00000200,01000000,0001.73,0000.83,0000.31,0000.12,0000.47,0000.32,0004.08,0003.75,0002.89,16.8,23.3,,00.0,0672.5,30.9
2021-10-02T08:43:00Z,00000200,01000000,0001.02,0001.20,0000.71,-000.17,0000.03,0000.36,0004.28,0003.71,0002.63,16.7,23.3,,00.0,0672.5,30.9
2021-10-02T08:44:00Z,00000200,01000000,0001.87,0000.90,0000.46,0000.80,-000.05,-000.23,0005.26,0004.68,0004.08,16.7,23.2,,00.0,0672.5,30.9
2021-10-02T08:45:00Z,00000200,01000000,0001.70,0001.01,0000.40,0000.72,0000.67,-000.00,0005.25,0005.08,0003.51,16.6,23.2,,00.0,0672.5,30.9
2021-10-02T08:46:00Z,00000200,01000000,0000.94,0000.28,0000.54,0000.80,0000.24,0000.04,0005.99,0005.26,0003.96,16.6,23.2,,00.0,0672.5,30.9
2021-10-02T08:47:00Z,00000200,01000000,0001.42,0000.85,0000.47,0000.27,0000.20,-000.12,0008.16,0007.09,0005.44,16.6,23.2,,00.0,0672.5,30.9
2021-10-02T08:48:00Z,00000200,01000000,0001.58,0000.85,0000.41,0000.49,0000.06,0000.02,0010.61,0009.90,0007.43,16.6,23.2,,00.0,0672.5,30.9
2021-10-02T08:49:00Z,00000200,01000000,0001.93,0000.94,0000.32,0000.63,0000.05,0000.22,0007.11,0006.23,0004.62,16.7,23.2,,00.0,0672.5,30.9
2021-10-02T08:50:00Z,00000200,01000000,0001.47,0000.61,0000.57,0000.54,0000.18,-000.06,0001.21,0000.83,0001.33,16.8,23.2,,00.0,0672.5,30.9
2021-10-02T08:51:00Z,00000200,01000000,0001.34,0000.23,0000.22,0000.05,0000.33,0000.24,0000.56,0000.84,0000.62,16.8,23.3,,00.0,0672.6,30.9
2021-10-02T08:52:00Z,00000200,01000000,0001.30,0000.67,0000.59,-000.04,0000.73,0000.04,0000.74,0000.57,0000.07,16.9,23.3,,00.0,0672.6,30.9
2021-10-02T08:53:00Z,00000200,01000000,0001.72,0000.84,0000.19,0000.39,0000.26,0000.11,0000.65,0000.97,0000.29,17.0,23.3,,00.0,0672.6,30.9
2021-10-02T08:54:00Z,00000200,01000000,0001.03,0000.80,0000.51,0000.08,0000.15,-000.09,0001.15,0000.54,0000.92,17.0,23.4,,00.0,0672.5,30.9
2021-10-02T08:55:00Z,00000200,01000000,0000.81,0000.70,0000.66,-000.04,0000.12,0000.09,0001.31,0001.33,0000.92,17.0,23.4,,00.0,0672.5,30.9
2021-10-02T08:56:00Z,00000200,01000000,0000.70,0000.63,0000.57,-000.35,0000.30,-000.16,0000.21,0000.35,0000.18,17.0,23.4,,00.0,0672.5,30.9
2021-10-02T08:57:00Z,00000200,41000000,,,,,,,0000.03,-000.10,-000.12,17.0,23.4,,00.0,0672.6,30.9
2021-10-02T08:58:00Z,00000200,61000000,,,,,,,-000.13,0000.07,0000.04,16.6,23.5,,00.0,0671.5,30.9
2021-10-02T08:59:00Z,00000200,21000000,,,,,,,0000.23,-000.37,0000.12,16.5,23.6,,00.0,0671.5,30.9
